[Iaude] MPEC B156: 2024 BH3 [a=0.83,e=0.25,i=11.1,H=24.8]

mpec at marsden.cfa.harvard.edu mpec at marsden.cfa.harvard.edu
Tue Jan 30 18:18:02 EST 2024


M.P.E.C. 2024-B156                             Issued 2024 January 30, 23:15 UT

     The Minor Planet Electronic Circulars contain information on unusual
         minor planets, routine data on comets and natural satellites,
         and occasional editorial announcements.  They are published
    on behalf of Division F of the International Astronomical Union by the
          Minor Planet Center, Smithsonian Astrophysical Observatory,
                          Cambridge, MA 02138, U.S.A.
			  
             Prepared using the Tamkin Foundation Computer Network

                              MPC at CFA.HARVARD.EDU
            URL https://www.minorplanetcenter.net/    ISSN 1523-6714

                                    2024 BH3                                    


Observations:
     K24B03H* C2024 01 21.59822612 01 27.524+02 01 18.26         21.39wXEB156F51
     K24B03H  C2024 01 21.62528112 01 14.658+01 59 08.20         21.23wXEB156F51
     K24B03H  C2024 01 21.63711712 01 09.027+01 58 11.20         21.05wXEB156F51
     K24B03H  C2024 01 21.64887212 01 03.427+01 57 14.37         21.23wXEB156F51
     K24B03H KC2024 01 22.11038611 57 41.93 +01 18 58.4          21.6 GVEB156L01
     K24B03H KC2024 01 22.11290911 57 40.68 +01 18 45.8          21.4 GVEB156L01
     K24B03H KC2024 01 22.11543211 57 39.46 +01 18 33.0          21.2 GVEB156L01
     K24B03H IC2024 01 22.11953211 57 37.49 +01 18 13.4          20.9 GVEB156L01
     K24B03H  C2024 01 22.56157711 54 16.551+00 41 51.79         21.84GVEB156F52
     K24B03H  C2024 01 24.59410811 37 18.636-02 20 13.28         21.45GVEB156F52
     K24B03H  C2024 01 24.59492511 37 18.178-02 20 17.71         20.06GVEB156F52

Observer details:
F51 Pan-STARRS 1, Haleakala.  Observers J. Herman, T. Lowe, P. Minguez, A.
    Schultz, I. Smith.  Measurers K. Chambers, T. de Boer, J. Fairlamb, H.
    Gao, M. Huber, C.-C. Lin, E. Magnier, Y. Ramanjooloo, R. Wainscoat, R.
    Weryk.  1.8-m Ritchey-Chretien + CCD.
F52 Pan-STARRS 2, Haleakala.  Observers J. Herman, T. Lowe, P. Minguez, A.
    Schultz, I. Smith.  Measurers K. Chambers, T. de Boer, J. Fairlamb, H.
    Gao, M. Huber, C.-C. Lin, E. Magnier, Y. Ramanjooloo, R. Wainscoat, R.
    Weryk.  1.8-m Ritchey-Chretien + CCD.
L01 Visnjan Observatory, Tican.  Observer K. Korlevic.  1.0-m f/2.9 reflector
    + CCD.

Orbital elements:
2024 BH3                                                 Earth MOID = 0.0402 AU
Epoch 2023 Sept. 13.0 TT = JDT 2460200.5                MPC                     
M 348.26435              (2000.0)            P               Q                  
n   1.30213924     Peri.   12.70396     +0.74082975     +0.65296979             
a   0.8305474      Node   305.38704     -0.63193048     +0.59807529             
e   0.2497798      Incl.   11.13799     -0.22767336     +0.46468957             
P   0.76           H   24.86          G   0.15           U   8                  
Residuals in seconds of arc
240121 F51  0.2-  0.2-    240122 L01  0.4+  0.0     240122 F52 (1.7-  1.3-)
240121 F51  0.0   0.0     240122 L01  0.1-  0.1-    240124 F52  0.0   0.0
240121 F51  0.1+  0.1+    240122 L01  0.2-  0.4-    240124 F52  0.2+  0.2+
240121 F51  0.0   0.0     240122 L01  0.0   0.3+

Ephemeris:
2024 BH3                 a,e,i = 0.83, 0.25, 11                  q = 0.6231
Date    TT    R. A. (2000) Decl.     Delta      r    Elong.  Phase     V
2023 12 31    13 21 56.7 +18 31 41   0.1484  0.9883    87.6    83.8    23.6
...
2024 01 15    12 39 13.0 +09 17 21   0.1005  1.0195   108.2    66.4    22.3
...
2024 01 23    11 50 48.8 +00 05 00   0.07792 1.0301   124.3    52.2    21.3
...
2024 01 29    10 51 43.3 -09 52 53   0.06680 1.0351   137.5    40.0    20.6
2024 01 30    10 39 38.0 -11 42 40   0.06572 1.0357   139.3    38.3    20.6
2024 01 31    10 26 57.3 -13 32 35   0.06491 1.0362   140.8    36.9    20.5
...
2024 02 06    09 03 12.6 -23 11 45   0.06597 1.0379   140.8    36.9    20.5
...
2024 02 14    07 23 27.0 -28 57 10   0.08111 1.0364   125.3    51.0    21.4
...
2024 02 29    05 51 34.2 -28 36 25   0.1269  1.0216   100.6    72.4    23.0

A. U. Tomatic                (C) Copyright 2024 MPC           M.P.E.C. 2024-B156





More information about the Iaude mailing list